Location: Unspecified
(0.0000°N, 0.0000°E)
Time: 13:20:53
(UTC+00:00)

Transit 2A - Pass Details

Date: 28 May 2019
Orbit: 593 x 966 km, 66.7° (Epoch: 16 June)

Event Time Altitude Azimuth Distance (km) Brightness Sun altitude
Rises 05:49:02 0° 230° (SW) 3,340 - -1.9°
Exits shadow 05:49:11 - 231° (SW) 3,295 8.7 -1.9°
Reaches altitude 10° 05:52:04 10° 247° (WSW) 2,473 8.0 -1.2°
Maximum altitude 05:56:07 20° 292° (WNW) 1,949 7.7 -0.3°
Drops below altitude 10° 06:00:23 10° 337° (NNW) 2,616 8.8 0.7°
Sets 06:03:43 0° 353° (N) 3,597 9.7 1.5°
